Date String (YYYY-MM-DD hh:mm:ss) UTC,Instrument flags,absolute air pressure of the measurement (hPa),sample flow rate (lpm),inlet stack bypass flow (lpm),air temperature of the measurement (°C),ambient temperature measured by the external sensor (°C),aerosol sample conditioner tube jacket temperature (°C),OPC LED temperature (°C),internal box temperature (°C),relative humidity of the measurement (%),span deviation,mass concentration of particles derived from Lorenz-Mie calculation of OPC scattering (μg/m³),mass concentration of particles derived from Lorenz-Mie calculation of OPC scattering (μg/m³),mass concentration of particles derived from Lorenz-Mie calculation of OPC scattering (μg/m³)
DateTimeUTC,F1_M11,P_M11,Q1_M11,Q2_M11,T1_M11,T2_M11,T3_M11,T4_M11,T5_M11,U1_M11,ZSPAN_M11,X2_M11,X0_M11,X1_M11
2024-01-02 01:00:00,SystemResetWarning,0831.0,5.00,000.00,026.2,025.0,000.0,034.5,027.5,11.1,0000.0,0002.15,0005.46,0001.62
2024-01-02 01:01:00,SystemResetWarning,0830.9,5.00,000.00,026.2,025.0,000.0,034.5,027.5,11.1,0000.0,0002.29,0005.73,0001.73
2024-01-02 01:02:00,SystemResetWarning,0831.0,5.00,000.00,026.2,025.0,000.0,034.5,027.5,11.1,0000.0,0002.40,0005.89,0001.82
2024-01-02 01:03:00,SystemResetWarning,0830.9,5.00,000.00,026.1,025.0,000.0,034.5,027.5,11.1,0000.0,0002.46,0005.92,0001.89
2024-01-02 01:04:00,SystemResetWarning,0830.9,5.00,000.00,026.1,025.0,000.0,034.5,027.5,11.1,0000.0,0002.55,0006.18,0001.96
2024-01-02 01:05:00,SystemResetWarning,0830.9,4.99,000.00,026.1,024.9,000.0,034.5,027.5,11.1,0000.0,0002.59,0005.81,0002.01
2024-01-02 01:06:00,SystemResetWarning,0831.0,5.00,000.00,026.1,024.9,000.0,034.5,027.5,11.1,0000.0,0002.51,0004.80,0001.97
2024-01-02 01:07:00,SystemResetWarning,0830.9,5.00,000.00,026.1,024.9,000.0,034.5,027.4,11.1,0000.0,0002.44,0004.13,0001.92
2024-01-02 01:08:00,SystemResetWarning,0831.0,4.99,000.00,026.1,024.9,000.0,034.5,027.4,11.2,0000.0,0002.41,0003.75,0001.92
2024-01-02 01:09:00,SystemResetWarning,0831.0,5.00,000.00,026.1,024.9,000.0,034.4,027.4,11.2,0000.0,0002.32,0003.71,0001.87
2024-01-02 01:10:00,SystemResetWarning,0831.0,5.00,000.00,026.1,024.8,000.0,034.4,027.4,11.2,0000.0,0002.25,0004.10,0001.81
2024-01-02 01:11:00,SystemResetWarning,0831.1,5.00,000.00,026.1,024.8,000.0,034.4,027.4,11.2,0000.0,0002.20,0004.15,0001.76
2024-01-02 01:12:00,SystemResetWarning,0831.1,5.02,000.00,026.1,024.8,000.0,034.4,027.4,11.1,0000.0,0002.18,0004.08,0001.74
2024-01-02 01:13:00,SystemResetWarning,0831.1,5.01,000.00,026.1,024.8,000.0,034.4,027.4,11.1,0000.0,0002.18,0004.95,0001.77
2024-01-02 01:14:00,SystemResetWarning,0831.1,4.98,000.00,026.1,024.8,000.0,034.4,027.4,11.1,0000.0,0002.22,0005.61,0001.81
2024-01-02 01:15:00,SystemResetWarning,0831.1,5.00,000.00,026.1,024.8,000.0,034.4,027.4,11.1,0000.0,0002.21,0005.46,0001.83
2024-01-02 01:16:00,SystemResetWarning,0831.1,5.01,000.00,026.1,024.8,000.0,034.4,027.4,11.1,0000.0,0002.22,0005.45,0001.86
2024-01-02 01:17:00,SystemResetWarning,0831.1,4.99,000.00,026.0,024.8,000.0,034.4,027.4,11.1,0000.0,0002.39,0005.66,0002.01
2024-01-02 01:18:00,SystemResetWarning,0831.1,5.01,000.00,026.0,024.8,000.0,034.4,027.4,11.1,0000.0,0002.55,0005.81,0002.15
2024-01-02 01:19:00,SystemResetWarning,0831.1,5.01,000.00,026.0,024.8,000.0,034.4,027.4,11.1,0000.0,0002.72,0006.13,0002.28
2024-01-02 01:20:00,SystemResetWarning,0831.1,4.99,000.00,026.0,024.8,000.0,034.4,027.4,11.1,0000.0,0002.90,0006.32,0002.45
2024-01-02 01:21:00,SystemResetWarning,0831.2,4.99,000.00,026.0,024.8,000.0,034.4,027.4,11.1,0000.0,0003.04,0006.87,0002.61
2024-01-02 01:22:00,SystemResetWarning,0831.1,5.02,000.00,026.0,024.8,000.0,034.4,027.4,11.0,0000.0,0003.13,0006.90,0002.76
2024-01-02 01:23:00,SystemResetWarning,0831.2,5.01,000.00,026.0,024.8,000.0,034.4,027.4,10.9,0000.0,0003.21,0007.08,0002.88
2024-01-02 01:24:00,SystemResetWarning,0831.2,4.99,000.00,026.0,024.8,000.0,034.4,027.4,10.9,0000.0,0003.25,0006.39,0002.91
2024-01-02 01:25:00,SystemResetWarning,0831.2,4.99,000.00,026.0,024.7,000.0,034.4,027.3,10.5,0000.0,0003.27,0005.96,0002.96
2024-01-02 01:26:00,SystemResetWarning,0831.2,5.01,000.00,026.0,024.7,000.0,034.3,027.3,10.4,0000.0,0003.31,0006.01,0003.04
2024-01-02 01:27:00,SystemResetWarning,0831.2,5.00,000.00,026.0,024.7,000.0,034.3,027.3,10.3,0000.0,0003.36,0006.14,0003.09
2024-01-02 01:28:00,SystemResetWarning,0831.2,5.00,000.00,026.0,024.7,000.0,034.3,027.3,10.4,0000.0,0003.35,0006.09,0003.09
2024-01-02 01:29:00,SystemResetWarning,0831.2,5.01,000.00,025.9,024.7,000.0,034.3,027.3,10.5,0000.0,0003.33,0006.42,0003.03
2024-01-02 01:30:00,SystemResetWarning,0831.1,5.00,000.00,025.9,024.7,000.0,034.3,027.3,10.5,0000.0,0003.26,0006.28,0002.95
2024-01-02 01:31:00,SystemResetWarning,0831.1,5.00,000.00,025.9,024.7,000.0,034.3,027.3,10.4,0000.0,0003.22,0006.07,0002.88
2024-01-02 01:32:00,SystemResetWarning,0831.1,5.01,000.00,025.9,024.7,000.0,034.3,027.3,10.3,0000.0,0003.18,0005.09,0002.83
2024-01-02 01:33:00,SystemResetWarning,0831.2,5.00,000.00,025.9,024.6,000.0,034.3,027.3,10.3,0000.0,0003.15,0004.99,0002.76
2024-01-02 01:34:00,SystemResetWarning,0831.2,5.00,000.00,025.9,024.6,000.0,034.3,027.3,10.4,0000.0,0003.08,0004.75,0002.70
2024-01-02 01:35:00,SystemResetWarning,0831.2,5.01,000.00,025.9,024.6,000.0,034.3,027.2,10.4,0000.0,0003.05,0004.58,0002.67
2024-01-02 01:36:00,SystemResetWarning,0831.2,5.00,000.00,025.9,024.6,000.0,034.3,027.3,10.6,0000.0,0003.06,0004.31,0002.64
2024-01-02 01:37:00,SystemResetWarning,0831.2,5.00,000.00,025.9,024.6,000.0,034.3,027.3,10.8,0000.0,0003.02,0004.30,0002.57
2024-01-02 01:38:00,SystemResetWarning,0831.2,5.00,000.00,025.9,024.6,000.0,034.3,027.2,10.6,0000.0,0002.92,0004.19,0002.49
2024-01-02 01:39:00,SystemResetWarning,0831.2,5.00,000.00,025.9,024.6,000.0,034.2,027.2,11.0,0000.0,0002.82,0004.09,0002.38
2024-01-02 01:40:00,SystemResetWarning,0831.2,5.00,000.00,025.9,024.6,000.0,034.2,027.2,10.8,0000.0,0002.75,0003.75,0002.33
2024-01-02 01:41:00,SystemResetWarning,0831.2,5.00,000.00,025.9,024.6,000.0,034.2,027.3,10.6,0000.0,0002.72,0003.52,0002.31
2024-01-02 01:42:00,SystemResetWarning,0831.2,5.01,000.00,025.9,024.6,000.0,034.2,027.2,10.5,0000.0,0002.69,0004.02,0002.26
2024-01-02 01:43:00,SystemResetWarning,0831.2,5.01,000.00,025.9,024.6,000.0,034.2,027.2,10.5,0000.0,0002.64,0004.28,0002.20
2024-01-02 01:44:00,SystemResetWarning,0831.2,4.99,000.00,025.9,024.6,000.0,034.2,027.2,10.4,0000.0,0002.56,0004.14,0002.12
2024-01-02 01:45:00,SystemResetWarning,0831.2,4.99,000.00,025.8,024.6,000.0,034.2,027.2,10.8,0000.0,0002.49,0004.15,0002.03
2024-01-02 01:46:00,SystemResetWarning,0831.2,5.01,000.00,025.8,024.6,000.0,034.2,027.2,10.8,0000.0,0002.46,0004.30,0001.98
2024-01-02 01:47:00,SystemResetWarning,0831.3,5.01,000.00,025.8,024.6,000.0,034.2,027.2,10.6,0000.0,0002.33,0004.16,0001.90
2024-01-02 01:48:00,SystemResetWarning,0831.2,5.00,000.00,025.8,024.5,000.0,034.2,027.1,10.6,0000.0,0002.31,0004.09,0001.90
2024-01-02 01:49:00,SystemResetWarning,0831.2,4.99,000.00,025.8,024.5,000.0,034.2,027.1,10.8,0000.0,0002.30,0004.09,0001.91
2024-01-02 01:50:00,SystemResetWarning,0831.3,4.99,000.00,025.8,024.5,000.0,034.2,027.1,11.0,0000.0,0002.34,0004.45,0001.96
2024-01-02 01:51:00,SystemResetWarning,0831.2,5.01,000.00,025.8,024.5,000.0,034.2,027.1,10.9,0000.0,0002.40,0004.55,0002.00
2024-01-02 01:52:00,SystemResetWarning,0831.2,5.00,000.00,025.8,024.5,000.0,034.2,027.1,10.7,0000.0,0002.49,0005.20,0002.03
2024-01-02 01:53:00,SystemResetWarning,0831.2,5.00,000.00,025.8,024.5,000.0,034.2,027.1,10.8,0000.0,0002.52,0005.18,0002.04
2024-01-02 01:54:00,SystemResetWarning,0831.2,5.00,000.00,025.8,024.5,000.0,034.1,027.1,11.2,0000.0,0002.50,0004.76,0002.05
2024-01-02 01:55:00,SystemResetWarning,0831.2,5.00,000.00,025.7,024.5,000.0,034.1,027.1,11.0,0000.0,0002.53,0004.85,0002.08
2024-01-02 01:56:00,SystemResetWarning,0831.2,5.00,000.00,025.7,024.5,000.0,034.1,027.0,11.0,0000.0,0002.67,0005.33,0002.11
2024-01-02 01:57:00,SystemResetWarning,0831.2,4.99,000.00,025.7,024.4,000.0,034.1,027.0,11.0,0000.0,0002.69,0005.35,0002.14
2024-01-02 01:58:00,SystemResetWarning,0831.2,4.99,000.00,025.7,024.4,000.0,034.1,027.0,11.1,0000.0,0002.71,0005.43,0002.16
2024-01-02 01:59:00,SystemResetWarning,0831.2,5.00,000.00,025.7,024.4,000.0,034.1,027.0,11.3,0000.0,0002.67,0005.38,0002.15
